Weather History for KFMH - March, 2013

Change the Weather History Date:

Tuesday, March 19, 2013

  Actual Average Record
Temperature  
Mean Temperature 38 °F -  
Max Temperature 45 °F 42 °F - (-1)
Min Temperature 32 °F 27 °F - (-1)
Degree Days  
Heating Degree Days 26    
Moisture  
Dew Point 35 °F    
Average Humidity 95    
Maximum Humidity 100    
Minimum Humidity 69    
Precipitation  
Precipitation 0.28 in - - ()
Sea Level Pressure  
Sea Level Pressure 29.78 in    
Wind  
Wind Speed 16 mph (East)    
Max Wind Speed 25 mph    
Max Gust Speed 37 mph    
Visibility 4 miles    
Events Fog , Rain , Snow    
Averages and records for this station are not official NWS values.
T = Trace of Precipitation, MM = Missing Value Source: NWS Daily Summary

Daily Weather History Graph

Daily Weather History Graph

Search for Another Location

Airport or City:

Trip Planner

Search our weather history database for the weather conditions in past years. The results will help you decide how hot, cold, wet, or windy it might be!

Date:

Astronomy

Mar. 19, 2013 Rise Set
Actual Time 6:46 AM EDT 6:53 PM EDT
Civil Twilight 6:19 AM EDT 7:21 PM EDT
Nautical Twilight 5:46 AM EDT 7:53 PM EDT
Astronomical Twilight 5:13 AM EDT 8:26 PM EDT
Moon 11:29 AM EDT (3/19) 1:42 AM EDT (3/19)
Length of Visible Light 13h 02m
Length of Day
12h 06m
Waxing Crescent, 49% of the Moon is Illuminated
Mar 19
Waxing Crescent
Mar 19
First Quarter
Mar 27
Full
Apr 3
Last Quarter
Apr 10
New

Hourly Weather History & Observations

Time (EDT) Temp. Windchill Dew Point Humidity Pressure Visibility Wind Dir Wind Speed Gust Speed Precip Events Conditions
12:15 AM 32.0 °F 23.0 °F 23.0 °F 69% 30.23 in 10.0 mi ESE 11.5 mph 16.1 mph N/A   Overcast
12:35 AM 32.0 °F 21.2 °F 24.8 °F 75% 30.21 in 3.0 mi SE 16.1 mph 25.3 mph N/A   Overcast
12:55 AM 32.0 °F 22.5 °F 28.4 °F 87% 30.19 in 1.0 mi East 12.7 mph 18.4 mph 0.04 in Snow Light Snow
1:15 AM 32.0 °F 21.6 °F 28.4 °F 87% 30.17 in 2.0 mi East 15.0 mph 25.3 mph 0.01 in Snow Light Snow
1:35 AM 32.0 °F 21.6 °F 28.4 °F 87% 30.14 in 1.5 mi East 15.0 mph 18.4 mph 0.03 in Snow Light Snow
1:55 AM 32.0 °F 21.6 °F 28.4 °F 87% 30.13 in 2.0 mi East 15.0 mph 23.0 mph 0.06 in Snow Light Snow
2:15 AM 32.0 °F 21.6 °F 28.4 °F 87% 30.11 in 4.0 mi East 15.0 mph 18.4 mph N/A Snow Light Snow
2:35 AM 32.0 °F 22.1 °F 28.4 °F 87% 30.08 in 8.0 mi East 13.8 mph 25.3 mph N/A Snow Light Snow
2:55 AM 32.0 °F 21.6 °F 28.4 °F 87% 30.07 in 7.0 mi East 15.0 mph 21.9 mph N/A Rain Light Freezing Rain
3:35 AM 32.0 °F 20.1 °F 30.2 °F 93% 30.05 in 4.0 mi East 19.6 mph 26.5 mph N/A Rain Light Freezing Rain
3:55 AM 32.0 °F 22.5 °F 30.2 °F 93% 30.04 in 5.0 mi East 12.7 mph 24.2 mph N/A Rain Light Freezing Rain
4:15 AM 32.0 °F 20.8 °F 30.2 °F 93% 30.03 in 4.0 mi East 17.3 mph 25.3 mph N/A Rain Light Freezing Rain
4:35 AM 32.0 °F 21.2 °F 30.2 °F 93% 30.02 in 3.0 mi East 16.1 mph 24.2 mph 0.01 in   Overcast
4:55 AM 32.0 °F 21.2 °F 30.2 °F 93% 30.01 in 2.5 mi East 16.1 mph 23.0 mph 0.01 in Rain Light Freezing Rain
5:15 AM 32.0 °F 20.8 °F 30.2 °F 93% 29.99 in 3.0 mi East 17.3 mph 26.5 mph N/A Rain Light Freezing Rain
5:35 AM 32.0 °F 20.8 °F 32.0 °F 100% 29.99 in 3.0 mi East 17.3 mph 21.9 mph N/A Rain Light Freezing Rain
5:55 AM 32.0 °F 22.1 °F 32.0 °F 100% 29.99 in 3.0 mi East 13.8 mph 23.0 mph N/A Rain Light Freezing Rain
6:15 AM 32.0 °F 21.2 °F 32.0 °F 100% 29.99 in 3.0 mi East 16.1 mph 21.9 mph N/A   Overcast
6:35 AM 32.0 °F 20.1 °F 32.0 °F 100% 29.99 in 3.0 mi East 19.6 mph 28.8 mph N/A Rain Light Rain
6:55 AM 32.0 °F 22.1 °F 32.0 °F 100% 29.98 in 1.8 mi East 13.8 mph 21.9 mph N/A   Overcast
7:15 AM 32.0 °F 20.8 °F 32.0 °F 100% 29.97 in 2.0 mi East 17.3 mph 23.0 mph N/A   Overcast
7:35 AM 32.0 °F 20.8 °F 32.0 °F 100% 29.95 in 3.0 mi East 17.3 mph 27.6 mph N/A   Overcast
7:55 AM 32.0 °F 20.8 °F 32.0 °F 100% 29.93 in 3.0 mi East 17.3 mph 23.0 mph N/A   Overcast
8:15 AM 33.8 °F 23.2 °F 32.0 °F 93% 29.92 in 4.0 mi East 17.3 mph 27.6 mph N/A   Overcast
8:35 AM 33.8 °F 23.2 °F 32.0 °F 93% 29.91 in 2.5 mi East 17.3 mph 29.9 mph N/A   Overcast
8:55 AM 35.6 °F 25.9 °F 32.0 °F 87% 29.89 in 3.0 mi East 16.1 mph 29.9 mph N/A   Overcast
9:15 AM 35.6 °F 24.5 °F 33.8 °F 93% 29.87 in 3.0 mi East 20.7 mph 31.1 mph N/A   Overcast
9:35 AM 35.6 °F 24.2 °F 33.8 °F 93% 29.85 in 3.0 mi East 21.9 mph 32.2 mph N/A   Mostly Cloudy
9:55 AM 35.6 °F 24.2 °F 33.8 °F 93% 29.84 in 3.0 mi East 21.9 mph 32.2 mph N/A Rain Light Rain
10:15 AM 35.6 °F 24.2 °F 35.6 °F 100% 29.82 in 3.0 mi East 21.9 mph 36.8 mph N/A Rain Light Rain
10:35 AM 37.4 °F 26.4 °F 35.6 °F 93% 29.81 in 3.0 mi East 23.0 mph 28.8 mph N/A   Overcast
10:55 AM 37.4 °F 26.4 °F 35.6 °F 93% 29.79 in 1.5 mi East 23.0 mph 31.1 mph N/A Rain Light Rain
11:15 AM 37.4 °F 26.4 °F 35.6 °F 93% 29.76 in 2.0 mi East 23.0 mph 31.1 mph N/A Rain Light Rain
11:35 AM 37.4 °F 27.2 °F 37.4 °F 100% 29.75 in 3.0 mi East 19.6 mph 34.5 mph N/A Rain Light Rain
11:55 AM 39.2 °F 28.7 °F 37.4 °F 93% 29.74 in 1.0 mi East 23.0 mph 35.7 mph N/A   Overcast
12:15 PM 39.2 °F 29.6 °F 37.4 °F 93% 29.71 in 3.0 mi East 19.6 mph 28.8 mph N/A   Overcast
12:35 PM 39.2 °F 29.6 °F 37.4 °F 93% 29.70 in 2.0 mi East 19.6 mph 29.9 mph N/A   Overcast
12:55 PM 39.2 °F 29.6 °F 39.2 °F 100% 29.68 in 2.5 mi East 19.6 mph 26.5 mph N/A   Overcast
1:15 PM 39.2 °F 30.8 °F 39.2 °F 100% 29.67 in 1.8 mi East 15.0 mph 23.0 mph N/A   Overcast
1:35 PM 41.0 °F 32.8 °F 39.2 °F 93% 29.65 in 1.8 mi East 16.1 mph 28.8 mph N/A   Overcast
1:55 PM 41.0 °F 33.5 °F 39.2 °F 93% 29.63 in 1.5 mi East 13.8 mph 25.3 mph N/A Rain Light Rain
2:15 PM 41.0 °F 31.9 °F 39.2 °F 93% 29.60 in 1.5 mi East 19.6 mph 27.6 mph N/A Rain Light Rain
2:35 PM 41.0 °F 31.9 °F 39.2 °F 93% 29.58 in 2.0 mi ESE 19.6 mph 26.5 mph N/A   Overcast
2:55 PM 41.0 °F 32.2 °F 41.0 °F 100% 29.57 in 1.2 mi ESE 18.4 mph 25.3 mph N/A   Overcast
3:15 PM 41.0 °F 32.5 °F 41.0 °F 100% 29.57 in 1.0 mi ESE 17.3 mph 25.3 mph N/A   Overcast
3:35 PM 41.0 °F 34.3 °F 41.0 °F 100% 29.56 in 1.0 mi ESE 11.5 mph - N/A Rain Light Rain
3:55 PM 41.0 °F 34.7 °F 41.0 °F 100% 29.54 in 1.0 mi ESE 10.4 mph - N/A   Overcast
4:15 PM 41.0 °F 36.4 °F 41.0 °F 100% 29.53 in 0.8 mi SE 6.9 mph - N/A   Overcast
4:35 PM 42.8 °F 38.0 °F 42.8 °F 100% 29.52 in 0.2 mi ESE 8.1 mph - N/A Fog Fog
4:55 PM 42.8 °F - 42.8 °F 100% 29.52 in 0.2 mi Calm Calm - N/A Fog Fog
5:15 PM 44.6 °F 43.1 °F 42.8 °F 93% 29.50 in 0.2 mi WNW 3.5 mph - N/A Fog Fog
5:35 PM 42.8 °F 40.1 °F 41.0 °F 93% 29.49 in 0.8 mi NNE 4.6 mph - N/A   Overcast
5:55 PM 42.8 °F 38.6 °F 42.8 °F 100% 29.49 in 0.8 mi NW 6.9 mph - N/A   Overcast
6:15 PM 41.0 °F 35.8 °F 41.0 °F 100% 29.50 in 1.0 mi NW 8.1 mph - N/A   Overcast
6:35 PM 41.0 °F 33.9 °F 39.2 °F 93% 29.51 in 0.8 mi WNW 12.7 mph - N/A   Overcast
6:55 PM 39.2 °F 30.5 °F 39.2 °F 100% 29.53 in 1.5 mi West 16.1 mph - N/A   Overcast
7:15 PM 39.2 °F 30.8 °F 37.4 °F 93% 29.54 in 1.8 mi West 15.0 mph - N/A   Overcast
7:35 PM 37.4 °F 28.5 °F 37.4 °F 100% 29.54 in 3.0 mi WNW 15.0 mph 24.2 mph N/A   Overcast
7:55 PM 37.4 °F 28.9 °F 37.4 °F 100% 29.54 in 10.0 mi WNW 13.8 mph 20.7 mph N/A   Overcast
8:15 PM 37.4 °F 27.8 °F 37.4 °F 100% 29.55 in 10.0 mi WNW 17.3 mph 23.0 mph N/A   Overcast
8:35 PM 35.6 °F 25.9 °F 35.6 °F 100% 29.55 in 3.0 mi WNW 16.1 mph 19.6 mph N/A   Overcast
8:55 PM 35.6 °F 25.2 °F 35.6 °F 100% 29.58 in 5.0 mi West 18.4 mph 25.3 mph N/A   Overcast
9:15 PM 35.6 °F 24.8 °F 35.6 °F 100% 29.59 in 10.0 mi WNW 19.6 mph 24.2 mph N/A   Overcast
9:35 PM 35.6 °F 24.2 °F 33.8 °F 93% 29.59 in 7.0 mi WNW 21.9 mph 28.8 mph N/A   Overcast
9:55 PM 33.8 °F 21.9 °F 32.0 °F 93% 29.60 in 4.0 mi WNW 21.9 mph 32.2 mph N/A Rain Light Rain
10:15 PM 32.0 °F 19.8 °F 32.0 °F 100% 29.61 in 5.0 mi WNW 20.7 mph 27.6 mph N/A   Overcast
10:35 PM 32.0 °F 20.1 °F 32.0 °F 100% 29.63 in 10.0 mi WNW 19.6 mph 31.1 mph N/A   Overcast
10:55 PM 32.0 °F 21.2 °F 32.0 °F 100% 29.62 in 10.0 mi NW 16.1 mph 25.3 mph N/A   Overcast
11:15 PM 32.0 °F 20.1 °F 32.0 °F 100% 29.63 in 10.0 mi WNW 19.6 mph 26.5 mph N/A   Overcast
11:35 PM 32.0 °F 21.6 °F 32.0 °F 100% 29.65 in 10.0 mi NW 15.0 mph 21.9 mph N/A   Overcast
11:55 PM 32.0 °F 20.5 °F 30.2 °F 93% 29.65 in 10.0 mi NW 18.4 mph 26.5 mph N/A   Overcast